Torna al catalogo

STARLINK-30350

AttivoComunicazioniVLEO
NORAD 57746·PAYLOAD·🇺🇸 United States

Lanciato Sep 1, 2023 da Cape Canaveral Space Force Station

Loading…

Prossimi Passaggi (prossime 24 ore)

TLE

AggiornatoSource: CelesTrak SupGP

Epoca: Sep 14, 2026, 22:10 UTC

1 57746C 23131Q   26257.92409722 -.00028340  00000+0 -10264-2 0  2576
2 57746  43.0020 180.3699 0001330 264.0612 220.1579 15.27595254    16

Traccia STARLINK-30350 in tempo reale con AllMySat

Download on the App Store